This is the latest recevied weather packets stored in our database for station/object F8BMG-Wx. If no packets are shown the sender has not sent any weather packets the latest 10 day(s).
| Time | Temp. | Humidity | Pressure | Rain* | Wind** | Luminosity | Snow |
|---|---|---|---|---|---|---|---|
| 1777905577 | 16.11° C | 99% | 1010.8 hPa | 0 mm | - | - | - |
| 1777905264 | 16.11° C | 99% | 1010.7 hPa | 0.51 mm | - | - | - |
| 1777904960 | 15.56° C | 99% | 1010.6 hPa | 0.51 mm | - | - | - |
| 1777904657 | 15.56° C | 99% | 1010.6 hPa | 0.51 mm | - | - | - |
| 1777904353 | 15.56° C | 99% | 1010.5 hPa | 0.51 mm | - | - | - |
| 1777904049 | 15.56° C | 99% | 1010.8 hPa | 0.25 mm | - | - | - |
| 1777903752 | 15° C | 99% | 1011 hPa | 0.25 mm | - | - | - |
| 1777903440 | 15° C | 99% | 1011.2 hPa | 0.25 mm | - | - | - |
| 1777903137 | 15° C | 99% | 1011.4 hPa | 0.25 mm | - | - | - |
| 1777902833 | 15° C | 99% | 1011.4 hPa | 0.25 mm | - | - | - |
| 1777902529 | 14.44° C | 99% | 1011.5 hPa | 0.25 mm | - | - | - |
| 1777902226 | 14.44° C | 99% | 1011.7 hPa | 0.25 mm | - | - | - |
| 1777901928 | 14.44° C | 99% | 1011.9 hPa | 0 mm | - | - | - |
| 1777901615 | 14.44° C | 99% | 1012 hPa | 1.52 mm | - | - | - |
| 1777901312 | 15° C | 99% | 1012.1 hPa | 1.27 mm | - | - | - |
| 1777901008 | 16.11° C | 99% | 1012.1 hPa | 0.25 mm | - | - | - |
| 1777900705 | 17.78° C | 99% | 1012 hPa | 0 mm | - | - | - |
| 1777900401 | 17.78° C | 99% | 1011.8 hPa | 0 mm | - | - | - |
| 1777900104 | 18.33° C | 99% | 1011.7 hPa | 0 mm | - | - | - |
| 1777899792 | 18.89° C | 99% | 1011.6 hPa | 0 mm | - | - | - |
| 1777899488 | 18.89° C | 99% | 1011.7 hPa | 0 mm | - | - | - |
| 1777899185 | 19.44° C | 99% | 1011.7 hPa | 0 mm | - | - | - |
| 1777898883 | 20° C | 99% | 1011.5 hPa | 0 mm | - | - | - |
| 1777898578 | 20° C | 99% | 1011.4 hPa | 0 mm | - | - | - |
| 1777898280 | 20.56° C | 99% | 1011.5 hPa | 0 mm | - | - | - |
* Rain latest hour (hover to see other rain measurements)
** Current wind speed in m/s (hover to see current wind gust speed)